CAPE
0 0 0 0 0 0 0 0 0 0 0 0 0 0 0 0 0 0 0 0 0 0 0 0 0 0 0 0 0 0 0 0 0 0 0 0 0 0 0 0 0 0 0 0
0 0 0 0 0 0 0 0 0 0 0 0 0 0 0 0 0 0 0 0 0 0 0 0 0 0 0 0 0 0 0 0 0 0 0 0 0 0 0 0 0 0 0 0
0 0 0 0 0 0 0 0 0 0 0 0 0 0 0 0 0 0 0 0 0 0 0 0 0 0 0 0 0 0 0 0 0 0 0 0 0 0 0 0 0 0 0 0
1 0 0 0 0 0 0 0 0 0 0 0 0 0 0 0 0 0 0 0 0 0 0 0 0 0 0 0 0 0 0 0 0 0 0 0 0 0 0 0 0 0 0 0
0 0 0 0 0 0 0 0 0 0 0 0 0 0 0 0 0 0 0 0 0 0 0 0 0 0 0 0 0 0 0 0 0 0 0 0 0 0 0 0 0 0 0 0
0 0 0 0 0 0 0 0 0 0 0 0 0 0 0 0 0 0 0 0 0 0 0 0 0 0 0 0 0 0 0 0 0 0 0 0 0 0 0 0 0 0 0 0
3 1 0 0 0 0 0 0 0 0 0 0 0 0 0 0 0 0 0 0 0 0 0 0 0 0 0 0 0 0 0 0 0 0 0 0 0 0 0 0 0 0 0 0
1 1 0 0 0 0 0 0 0 0 0 0 0 0 0 0 0 0 0 0 0 0 0 0 0 0 0 0 0 0 0 0 0 0 0 0 0 0 0 0 0 0 0 0
0 3 0 0 0 0 0 0 0 0 0 0 0 0 0 0 0 0 0 0 0 0 0 0 0 0 0 0 0 0 0 0 0 0 0 0 0 0 0 0 0 0 0 0
0 3 0 0 0 0 0 0 0 0 0 0 0 0 0 0 0 0 0 0 0 0 0 0 0 0 0 0 0 0 0 0 0 0 0 0 0 0 0 0 0 0 0 0
14 3 0 0 0 0 0 0 0 0 0 0 0 0 0 0 0 0 0 0 0 0 0 0 0 0 0 0 0 0 0 0 0 0 0 0 0 0 0 0 0 0 0 0
0 2 0 0 0 0 0 0 0 0 0 0 0 0 0 0 0 0 0 0 0 0 0 0 0 0 0 0 0 0 0 0 0 0 0 0 0 0 0 0 0 0 0 0
11 48 7 0 2 0 0 0 0 0 0 0 0 0 0 0 0 0 0 0 0 0 0 0 0 0 0 0 0 0 0 0 0 0 0 0 0 0 0 0 0 0 0 0
0 0 2 0 0 0 0 0 0 0 0 0 0 0 0 0 0 0 0 0 0 0 0 0 0 0 0 0 0 0 0 0 0 0 0 0 0 0 0 0 0 0 0 0
0 0 0 0 0 0 0 0 0 0 0 0 0 0 0 0 0 0 0 0 0 0 0 0 0 0 0 0 0 0 0 0 0 0 0 0 0 0 0 0 0 0 0 0
0 0 0 0 0 0 0 0 0 0 0 0 0 0 0 0 0 0 0 0 0 0 0 0 0 0 0 0 0 0 0 0 0 0 0 0 0 0 0 0 0 0 0 0
0 0 0 0 0 0 0 0 0 0 0 0 0 0 0 0 0 0 0 0 0 0 0 0 0 0 0 0 0 0 0 0 0 0 0 0 0 0 0 0 0 0 0 0
0 0 0 0 0 0 0 0 0 0 0 0 0 0 0 0 0 0 0 0 0 0 0 0 0 0 0 0 0 0 0 0 0 0 0 0 0 0 0 0 0 0 0 0
0 0 0 0 0 0 0 0 0 0 0 0 0 0 0 0 0 0 0 0 0 0 0 0 0 0 0 0 0 0 0 0 0 0 0 0 0 0 0 0 0 0 0 0
0 0 0 0 0 0 0 0 0 0 0 0 0 0 0 0 0 0 0 0 0 0 0 0 0 0 0 0 0 0 0 0 0 0 0 0 0 0 0 0 0 0 0 0
0 0 0 0 0 0 0 0 0 0 0 0 0 0 0 0 0 0 0 0 0 0 0 0 0 0 0 0 0 0 0 0 0 0 0 0 0 0 0 0 0 0 0 0
0 0 0 0 0 0 0 0 0 0 3 0 0 0 0 0 0 0 0 0 0 0 0 0 0 0 0 0 0 0 0 0 0 0 0 0 0 0 0 0 0 0 0 0
0 0 0 0 0 0 0 0 0 0 0 3 0 0 0 0 0 0 0 0 0 0 0 0 0 0 0 0 0 0 0 0 0 0 0 0 0 0 0 0 0 0 0 0
0 0 0 1 0 0 0 0 0 0 0 0 0 0 0 0 0 0 0 0 0 0 0 0 0 0 0 0 0 0 0 0 0 0 0 0 0 0 0 0 0 0 0 0
0 0 0 0 0 0 0 0 0 0 0 0 0 0 0 0 0 0 0 0 0 0 0 0 0 0 0 0 0 0 0 0 0 0 0 0 0 0 0 0 0 0 0 0
0 0 0 0 0 0 0 0 0 0 0 0 0 0 0 0 0 0 0 0 0 0 0 0 0 0 0 0 0 0 0 0 0 0 0 0 0 0 0 0 0 0 0 0
CIN
0 0 0 0 0 0 0 0 0 0 0 0 0 0 0 0 0 0 0 0 0 0 0 0 0 0 0 0 0 0 0 0 0 0 0 0 0 0 0 0 0 0 0 0
0 0 0 0 0 0 0 0 0 0 0 0 0 0 0 0 0 0 0 0 0 0 0 0 0 0 0 0 0 0 0 0 0 0 0 0 0 0 0 0 0 0 0 0
0 0 0 0 0 0 0 0 0 0 0 0 0 0 0 0 0 0 0 0 0 0 0 0 0 0 0 0 0 0 0 0 0 0 0 0 0 0 0 0 0 0 0 0
-1 -1 0 0 0 0 0 0 0 0 0 0 0 0 0 0 0 0 0 0 0 0 0 0 0 0 0 0 0 0 0 0 0 0 0 0 0 0 0 0 0 0 0 0
0 0 0 0 0 0 0 0 0 0 0 0 0 0 0 0 0 0 0 0 0 0 0 0 0 0 0 0 0 0 0 0 0 0 0 0 0 0 0 0 0 0 0 0
0 0 0 0 0 0 0 0 0 0 0 0 0 0 0 0 0 0 0 0 0 0 0 0 0 0 0 0 0 0 0 0 0 0 0 0 0 0 0 0 0 0 0 0
-3 -3 0 0 0 0 0 0 0 0 0 0 0 0 0 0 0 0 0 0 0 0 0 0 0 0 0 0 0 0 0 0 0 0 0 0 0 0 0 0 0 0 0 0
-7 -1 -1 0 0 0 0 0 0 0 0 0 0 0 0 0 0 0 0 0 0 0 0 0 0 0 0 0 0 0 0 0 0 0 0 0 0 0 0 0 0 0 0 0
-3 -3 0 0 0 0 0 0 0 0 0 0 0 0 0 0 0 0 0 0 0 0 0 0 0 0 0 0 0 0 0 0 0 0 0 0 0 0 0 0 0 0 0 0
0 -5 0 0 -2 0 0 0 0 0 0 0 0 0 0 0 0 0 0 0 0 0 0 0 0 0 0 0 0 0 0 0 0 0 0 0 0 0 0 0 0 0 0 0
-14 -18 0 -1 -3 0 0 0 0 0 0 0 0 0 0 0 0 0 0 0 0 0 0 0 0 0 0 0 0 0 0 0 0 0 0 0 0 0 0 0 0 0 0 0
0 -38 0 0 0 0 0 0 0 0 0 0 0 0 0 0 0 0 0 0 0 0 0 0 0 0 0 0 0 0 0 0 0 0 0 0 0 0 0 0 0 0 0 0
-2 -3 -20 -1 -5 0 0 0 0 0 0 0 0 0 0 0 0 0 0 0 0 0 0 0 0 0 0 0 0 0 0 0 0 0 0 0 0 0 0 0 0 0 0 0
0 0 -31 0 0 0 0 0 0 0 0 0 0 0 0 0 0 0 0 0 0 0 0 0 0 0 0 0 0 0 0 0 0 0 0 0 0 0 0 0 0 0 0 0
0 0 0 0 0 -16 0 0 0 0 0 0 0 0 0 0 0 0 0 0 0 0 0 0 0 0 0 0 0 0 0 0 0 0 0 0 0 0 0 0 0 0 0 0
0 0 0 0 0 0 0 0 0 0 0 0 0 0 0 0 0 0 0 0 0 0 0 0 0 0 0 0 0 0 0 0 0 0 0 0 0 0 0 0 0 0 0 0
0 0 0 0 0 0 0 0 0 0 0 0 0 0 0 0 0 0 0 0 0 0 0 0 0 0 0 0 0 0 0 0 0 0 0 0 0 0 0 0 0 0 0 0
0 0 0 0 0 0 0 0 0 0 0 0 0 0 0 0 0 0 0 0 0 0 0 0 0 0 0 0 0 0 0 0 0 0 0 0 0 0 0 0 0 0 0 0
0 0 0 0 0 0 0 0 -1 0 0 0 0 0 0 0 0 0 0 0 0 0 0 0 0 0 0 0 0 0 0 0 0 0 0 0 0 0 0 0 0 0 0 0
0 0 0 0 0 0 0 0 0 0 0 0 0 0 0 0 0 0 0 0 0 0 0 0 0 0 0 0 0 0 0 0 0 0 0 0 0 0 0 0 0 0 0 0
0 0 0 0 0 0 0 0 0 0 0 0 0 0 0 0 0 0 0 0 0 0 0 0 0 0 0 0 0 0 0 0 0 0 0 0 0 0 0 0 0 0 0 0
0 0 0 0 0 0 0 0 0 0 -27 0 0 0 0 0 0 0 0 0 0 0 0 0 0 0 0 0 0 0 0 0 0 0 0 0 0 0 0 0 0 0 0 0
-3 0 0 0 0 0 0 0 0 0 0 -51 0 0 0 0 0 0 0 0 0 0 0 0 0 0 0 0 0 0 0 0 0 0 0 0 0 0 0 0 0 0 0 0
0 0 0 -13 0 0 0 0 0 0 0 0 0 0 0 0 0 0 0 0 0 0 0 0 0 0 0 0 0 0 0 0 0 0 0 0 0 0 0 0 0 0 0 0
0 0 0 0 0 0 0 0 0 0 0 0 0 0 0 0 0 0 0 0 0 0 0 0 0 0 0 0 0 0 0 0 0 0 0 0 0 0 0 0 0 0 0 0
0 0 0 0 0 0 0 0 0 0 0 0 0 0 0 0 0 0 0 0 0 0 0 0 0 0 0 0 0 0 0 0 0 0 0 0 0 0 0 0 0 0 0 0
Wind_Speed
33 38 41 36 33 33 36 39 41 36 34 34 41 48 49 44 44 46 45 43 42 42 36 31 28 25 23 20 18 16 14 12 9 7 6 3 0 3 5 7 9 11 13 15
39 50 40 35 35 38 40 43 43 36 31 34 38 48 48 43 46 45 49 49 47 44 38 37 29 22 20 20 19 17 16 13 12 9 7 6 2 4 4 6 7 9 11 13
47 39 39 38 38 41 43 46 40 39 31 34 39 49 50 45 43 44 47 49 48 48 44 39 30 24 21 18 18 18 17 15 13 11 8 6 4 6 4 4 6 8 10 12
50 51 38 41 45 38 47 36 37 37 38 46 33 54 46 41 44 43 42 45 49 48 44 39 33 27 21 18 17 17 17 16 14 13 11 9 7 3 3 2 4 6 8 10
49 41 44 44 45 37 43 31 35 38 42 42 43 47 47 40 49 51 46 43 42 39 39 40 35 29 22 19 17 17 16 16 14 14 13 11 8 5 4 1 2 4 7 9
52 37 39 46 40 36 30 29 29 29 36 52 50 46 57 48 47 45 41 38 37 37 35 35 31 28 25 21 19 17 17 16 16 15 14 13 10 6 3 1 2 3 5 7
51 51 40 37 37 34 34 33 38 40 41 55 36 43 58 33 38 39 40 34 29 27 28 29 27 24 23 22 21 19 19 17 16 16 15 14 11 8 6 3 3 3 3 5
58 56 51 38 41 39 40 37 39 46 45 45 34 51 47 39 43 36 33 33 34 30 30 28 25 22 21 20 23 22 21 19 18 16 16 15 12 10 7 4 3 3 3 4
53 60 35 42 37 34 40 46 37 33 31 39 41 47 46 45 45 39 37 31 34 32 27 26 23 21 20 19 20 21 20 19 18 17 16 15 13 11 8 5 3 2 2 2
39 51 45 42 35 38 39 36 41 38 47 49 44 45 45 31 33 34 40 38 32 30 25 21 18 18 18 17 17 18 19 18 17 16 16 15 14 12 9 6 5 3 2 1
44 43 40 36 47 47 41 42 40 39 39 47 49 46 33 33 27 27 27 23 26 22 19 17 15 14 14 15 16 17 18 17 16 16 16 15 14 12 10 8 5 4 3 2
49 41 49 47 39 41 42 44 43 46 47 42 38 38 21 23 23 22 19 13 14 14 15 14 12 13 13 13 15 16 17 17 17 16 16 15 14 13 11 9 7 5 4 3
39 47 55 47 45 37 47 46 46 43 43 51 50 42 26 19 16 14 13 13 11 10 11 11 12 12 14 14 14 15 17 17 16 16 16 15 15 14 12 11 8 6 5 5
25 45 41 55 54 43 46 48 46 48 49 52 54 42 26 22 20 16 13 11 9 10 9 10 12 13 14 15 16 16 17 17 17 17 16 16 16 15 14 12 10 8 6 6
21 30 41 44 36 41 47 47 47 51 54 50 50 46 33 25 20 16 12 9 7 9 9 9 10 11 12 13 14 15 16 17 17 18 18 18 17 16 15 12 11 9 8 7
21 26 24 37 39 36 41 42 47 50 55 54 42 43 33 25 20 17 12 6 5 5 7 9 10 9 10 10 10 13 15 16 16 17 17 16 15 15 14 13 12 10 9 7
25 21 24 31 30 40 48 43 44 50 49 51 55 43 32 27 20 16 11 7 6 6 7 8 9 9 8 8 9 11 13 15 18 18 19 18 17 15 14 13 12 11 10 8
28 26 22 27 26 43 34 34 38 46 49 45 43 41 37 32 26 19 13 12 11 10 10 10 10 11 10 8 6 7 8 11 14 17 18 17 16 16 15 14 14 12 11 10
28 28 24 28 28 29 25 27 33 39 47 44 44 40 39 33 29 28 23 20 18 18 18 16 15 15 14 12 10 7 7 9 10 13 16 17 17 16 15 15 15 14 12 12
30 29 28 26 32 36 22 15 20 27 45 32 39 42 39 40 49 39 25 23 22 21 20 18 19 19 18 17 15 13 11 10 12 13 13 14 15 16 17 17 16 15 14 13
30 32 34 31 33 31 28 24 21 34 34 24 25 34 37 40 37 33 27 27 26 26 26 24 23 22 21 19 18 20 17 19 20 18 15 15 16 16 17 17 18 16 16 14
35 34 35 33 35 42 30 24 29 26 24 22 20 19 21 22 24 22 23 26 26 26 26 25 26 26 25 23 21 22 23 22 19 18 16 15 16 18 18 17 18 17 16 16
41 36 36 35 37 31 27 30 28 26 26 28 24 25 26 29 28 24 24 22 25 25 25 24 23 24 25 26 26 27 25 23 22 20 19 16 17 19 20 20 19 19 18 18
37 33 41 37 41 42 37 36 36 36 36 32 30 31 30 30 32 34 30 30 28 26 25 26 26 27 27 25 27 28 26 25 25 25 23 20 18 21 22 23 24 22 20 19
29 27 37 40 45 44 43 43 44 43 43 42 37 34 34 32 32 32 36 34 34 32 30 29 30 30 30 27 27 27 27 27 28 29 27 26 23 23 24 27 27 26 25 21
27 34 37 43 41 45 45 44 44 46 48 48 47 44 42 39 39 36 39 41 41 39 35 35 36 35 31 30 30 28 27 27 28 30 30 29 27 26 28 30 30 29 27 23
Wind_Direction
256 254 247 249 251 261 263 262 262 266 265 263 261 254 254 259 256 252 251 251 252 251 257 258 261 257 252 246 242 237 231 228 221 231 236 240 255 15 26 41 50 50 44 43
254 250 254 255 255 255 259 259 260 268 268 264 265 258 256 261 257 256 251 250 250 252 256 255 259 257 249 245 239 234 227 222 217 219 235 272 280 328 6 25 33 38 40 45
249 261 250 251 252 252 254 255 258 262 269 268 268 262 255 260 261 260 255 253 252 249 253 255 258 255 251 241 235 230 224 219 218 220 221 266 279 316 334 3 26 38 44 48
255 252 255 248 248 246 252 257 257 261 264 260 268 257 258 258 258 258 260 257 253 252 255 257 256 254 247 241 240 231 222 217 217 210 209 203 214 250 309 20 28 46 47 48
250 250 243 249 249 245 253 258 257 260 260 263 260 262 257 259 255 254 258 261 261 261 259 257 256 253 245 240 229 226 221 215 210 201 200 205 219 253 300 353 67 49 50 47
249 259 246 250 250 247 249 253 260 263 261 256 255 257 254 256 257 260 262 265 265 263 262 260 259 255 247 240 233 225 215 213 213 207 207 204 207 223 241 188 121 75 55 47
245 247 254 246 245 238 240 237 249 252 253 252 260 254 250 265 262 264 264 267 269 266 267 263 256 250 244 234 231 227 219 218 212 209 208 208 208 209 208 181 161 120 75 50
241 244 240 242 242 240 233 230 242 248 250 254 259 253 258 262 262 269 269 270 265 267 268 266 257 247 240 235 231 226 219 220 214 212 210 210 210 216 219 208 178 147 110 75
241 243 250 241 243 234 237 235 241 253 260 257 258 261 266 266 265 267 268 269 265 263 268 267 257 249 240 235 231 222 218 220 214 213 213 212 212 214 213 215 202 175 125 62
251 245 245 240 241 239 237 234 236 245 248 252 256 259 258 270 268 269 266 260 266 262 262 266 255 247 244 241 235 227 223 218 215 214 215 210 208 210 211 212 200 188 172 103
242 245 245 236 235 232 234 230 238 241 248 249 253 257 268 269 275 279 281 262 263 254 254 260 255 248 245 243 237 227 221 218 216 212 210 208 207 208 210 218 220 205 188 159
238 248 239 239 241 242 237 236 234 235 240 247 252 252 280 279 281 272 286 268 268 257 256 257 253 249 244 240 235 225 224 222 219 214 212 213 213 213 216 223 225 218 198 176
239 238 238 240 241 244 234 235 231 241 242 242 243 251 268 284 299 293 283 273 268 261 258 258 253 251 249 244 239 234 229 227 224 221 219 220 215 212 221 227 229 220 200 184
258 240 244 235 239 237 237 234 234 236 239 240 241 245 257 272 279 284 284 276 264 257 261 262 259 256 255 253 247 241 235 233 229 227 225 220 219 223 227 232 230 217 201 187
270 251 246 248 250 240 240 238 237 236 239 240 243 242 249 264 274 280 283 273 259 255 258 264 266 265 262 258 251 246 240 235 231 230 231 231 230 231 230 228 225 216 208 202
272 255 263 245 247 249 241 242 239 238 240 243 247 245 251 260 267 267 266 256 249 255 260 261 267 273 271 264 256 247 241 237 234 233 232 231 228 227 225 226 223 217 212 210
258 266 260 247 257 248 241 243 242 241 242 241 241 244 248 251 252 255 248 247 248 253 261 264 269 279 285 277 264 253 245 242 240 239 238 236 233 227 218 213 212 208 205 203
254 255 262 256 261 239 249 252 248 245 245 246 246 244 245 248 248 252 247 250 254 256 266 269 273 279 287 293 286 271 256 246 243 243 241 238 233 229 224 213 209 208 204 197
256 252 259 253 253 259 258 253 249 247 245 248 247 247 244 244 247 247 252 257 256 260 265 268 270 272 273 274 274 277 272 259 251 246 242 239 235 229 221 215 210 215 214 222
252 256 257 252 252 247 253 255 268 259 245 262 251 247 246 245 244 246 249 253 256 258 260 267 270 269 271 270 266 265 273 268 260 252 244 239 234 229 223 220 220 227 226 227
251 252 251 253 253 256 253 265 280 249 248 268 264 250 247 246 250 249 248 255 259 259 260 263 266 268 268 269 265 262 265 261 259 259 255 247 242 234 228 225 230 225 229 231
251 251 251 254 254 253 252 260 259 264 259 268 274 266 255 260 255 245 248 252 258 261 261 264 263 264 266 266 264 262 260 263 265 264 260 253 245 240 233 226 231 230 228 230
252 257 258 257 258 258 261 257 260 271 269 265 261 261 263 262 256 256 260 263 261 263 263 263 262 265 266 264 262 261 264 264 265 265 261 256 249 244 240 235 232 232 232 232
264 269 262 263 260 260 262 266 264 265 264 268 266 262 262 260 257 260 264 262 264 264 265 262 263 264 265 267 263 261 265 266 263 263 262 258 251 247 244 243 240 237 233 232
269 268 264 265 263 265 266 268 267 267 263 262 267 266 264 263 260 263 263 265 261 264 266 266 266 263 261 264 266 266 267 267 264 261 261 259 255 249 246 245 243 243 244 236
275 270 266 265 272 267 267 272 270 268 265 262 262 263 262 262 261 265 264 263 260 260 264 265 265 263 262 263 267 271 270 268 266 264 261 259 257 252 250 247 247 251 251 245